TUI7NX GCFV-EDDF

Flight info

Callsign TUI7NX
Flight time N/A
Altitude 34000
Route VASTO DCT BAROK DCT SUNES DCT TAGUX/N0443F360 DCT TOFEF DCT BARDI DCT ZMR DCT NUBLO DCT RONSI DCT DELOG DCT DIDIG DCT ARDOD DCT OBATO UM163 TSU UN858 OQQAL DCT RANUX/N0444F370 DCT VALEK DCT LUTAX DCT DIK T856 NIVNU T847 IMCOM IMCOM2C
Aircraft B738/M-SDE2E3FGHIRWXY/LB1

Departure

Time 2026-05-08 15:14
Airport Fuerteventura Airport (GCFV)

Arrival

Time N/A
Airport Frankfurt Main Airport (EDDF)
Time Latitude Longitude Altitude Speed Heading
2026-05-08 14:40 28.45051 -13.86842 98 ft 0 kts 271°
2026-05-08 15:02 28.45050 -13.86822 98 ft 4 kts 273°
2026-05-08 15:02 28.45049 -13.86792 98 ft 4 kts 267°
2026-05-08 15:02 28.45052 -13.86765 98 ft 4 kts 237°
2026-05-08 15:03 28.45071 -13.86747 98 ft 4 kts 194°
2026-05-08 15:03 28.45098 -13.86744 98 ft 4 kts 180°
2026-05-08 15:03 28.45120 -13.86743 98 ft 4 kts 184°
2026-05-08 15:03 28.45128 -13.86742 96 ft 0 kts 181°
2026-05-08 15:07 28.45123 -13.86742 96 ft 2 kts 180°
2026-05-08 15:07 28.45104 -13.86716 97 ft 7 kts 105°
2026-05-08 15:08 28.45098 -13.86648 97 ft 8 kts 93°
2026-05-08 15:08 28.45095 -13.86616 96 ft 6 kts 99°
2026-05-08 15:08 28.45045 -13.86577 94 ft 9 kts 180°
2026-05-08 15:08 28.44985 -13.86579 94 ft 9 kts 181°
2026-05-08 15:09 28.44925 -13.86580 94 ft 9 kts 181°
2026-05-08 15:09 28.44845 -13.86583 92 ft 15 kts 181°
2026-05-08 15:09 28.44704 -13.86588 76 ft 24 kts 181°
2026-05-08 15:09 28.44537 -13.86593 70 ft 23 kts 181°
2026-05-08 15:10 28.44378 -13.86598 61 ft 23 kts 182°
2026-05-08 15:10 28.44272 -13.86601 62 ft 22 kts 181°
2026-05-08 15:10 28.44122 -13.86607 56 ft 22 kts 181°
2026-05-08 15:10 28.43974 -13.86612 48 ft 21 kts 182°
2026-05-08 15:11 28.43831 -13.86616 44 ft 20 kts 182°
2026-05-08 15:11 28.43691 -13.86621 41 ft 20 kts 181°
2026-05-08 15:11 28.43556 -13.86625 38 ft 19 kts 181°
2026-05-08 15:11 28.43426 -13.86629 35 ft 17 kts 181°
2026-05-08 15:12 28.43317 -13.86611 31 ft 16 kts 127°
2026-05-08 15:12 28.43305 -13.86551 32 ft 0 kts 93°
2026-05-08 15:12 28.43305 -13.86528 32 ft 6 kts 91°
2026-05-08 15:13 28.43314 -13.86454 31 ft 11 kts 51°
2026-05-08 15:13 28.43441 -13.86437 32 ft 40 kts
2026-05-08 15:13 28.43961 -13.86420 33 ft 107 kts
2026-05-08 15:13 28.44894 -13.86392 84 ft 158 kts
2026-05-08 15:14 28.46057 -13.86307 576 ft 172 kts
2026-05-08 15:14 28.47301 -13.86238 1191 ft 186 kts 359°
2026-05-08 15:14 28.48607 -13.85858 1700 ft 210 kts 30°
2026-05-08 15:14 28.49642 -13.84594 2033 ft 231 kts 59°
2026-05-08 15:15 28.50540 -13.83020 2435 ft 243 kts 48°
2026-05-08 15:15 28.51893 -13.81868 2924 ft 249 kts 22°
2026-05-08 15:15 28.53550 -13.81060 3347 ft 268 kts 20°
2026-05-08 15:15 28.55283 -13.80223 4087 ft 273 kts 21°
2026-05-08 15:16 28.57026 -13.79345 4954 ft 275 kts 20°
2026-05-08 15:16 28.58792 -13.78467 5706 ft 279 kts 19°
2026-05-08 15:16 28.60557 -13.77587 6480 ft 282 kts 19°
2026-05-08 15:16 28.62372 -13.76675 7149 ft 288 kts 19°
2026-05-08 15:17 28.64223 -13.75739 7836 ft 294 kts 19°
2026-05-08 15:17 28.66109 -13.74785 8513 ft 300 kts 19°
2026-05-08 15:17 28.68035 -13.73809 9205 ft 305 kts 19°
2026-05-08 15:17 28.69988 -13.72808 9902 ft 311 kts 20°
2026-05-08 15:18 28.71987 -13.71788 10373 ft 323 kts 20°
2026-05-08 15:18 28.74117 -13.70709 10538 ft 346 kts 20°
2026-05-08 15:18 28.76375 -13.69563 10838 ft 362 kts 20°
2026-05-08 15:18 28.78702 -13.68376 11404 ft 369 kts 20°
2026-05-08 15:19 28.81055 -13.67172 12074 ft 372 kts 20°
2026-05-08 15:19 28.83430 -13.65957 12700 ft 376 kts 20°
2026-05-08 15:19 28.85831 -13.64730 13280 ft 382 kts 19°
2026-05-08 15:19 28.88278 -13.63481 13858 ft 388 kts 19°